cubair logo

For once you have tasted flight you will walk the earth with your eyes turned skywards,
for there you have been and there you will long to return.


"Leonardo da Vinci"

Welcome To CubAir Flight!

Cub Air Flight was founded in 2006, by Steve and Sharon Krog. Cub Air Flight school uses vintage Piper J3 Cub aircraft to instruct in, following a philosophy that “old school is still cool.” Cub Air Flight believes that these fine classic airplanes make better pilots by requiring more attention and flying skill than newer airplanes. We at Cub Air Flight hold that flying a vintage airplane is as much an art as it is a science.

The Piper J3 Cub is revered among aviators as a truly classic and iconic airplane. It has served as a trainer to more pilots than almost any airplane, earning a reputation as easy to fly but yet challenging enough to force students to continually better themselves. Cub Air uses two J3 Cubs, restored and maintained with the same attention to detail as a lovingly restored classic car. Cub Air also uses a Piper Cherokee for training requiring an aircraft with more advanced instruments.

Come fly with us and feel the freedom of
flying, the way it's supposed to be!


"Old School Is Still Cool!"

 

Our Instructors

Steve Krog
Joe Schmidt

Find Us Here!

Hartford Municipal

Airport (KHXF)

4200 Highway U

Hartford, WI 53027

Our Staff

Steve Krog
Sharon Krog
Jamie Weber
Chris Hibben

Oshkosh Weather

[Source: ADDS]
METAR
KOSH 301553Z 05010KT 10SM CLR 23/15 A3004 RMK AO2 SLP162 T02280150 =
TAF
KOSH 301138Z 3012/3112 04005KT P6SM SCT060 SCT090 TEMPO 3012/3016 BKN060 BKN090 FM301600 05009KT P6SM SCT040 FM310300 VRB03KT P6SM FEW050 SCT100 =

West Bend Weather

[Source: ADDS]
METAR
KETB 301630Z AUTO 08011G15KT 10SM CLR 23/15 A3004 RMK AO2 =
TAF

Juneau Weather

[Source: ADDS]
METAR
KUNU 301635Z AUTO 07007KT 10SM SCT028 23/16 A3004 RMK AO2 T02260163 =
TAF

Fond Du Lac Weather

[Source: ADDS]
METAR
KFLD 301553Z AUTO 06010KT 10SM CLR 24/16 A3005 RMK AO2 SLP170 T02390161 =
TAF